[[{"header":{"parameterUnit":"m.s-1","parameterCategory":1,"la1":30.2991,"la2":30.254,"lo1":-89.0895,"lo2":-89.0444,"dy":0.0017,"dx":0.0017,"nx":28,"ny":28,"refTime":"2024-05-06T03:00:00:Z","depth":0,"parameterNumber":2,"parameterNumberName":"U-component_of_WINDS"},"data":[0,0,0,0,0,0,0,0,0,0,0,0,0,0,0,0,0,0,0,0,0,0,0,0,0,0,0,0,0,0,0,0,0,0,0,0,0,0,0,0,0,0,0,0,0,0,0,0,0,0,0,0,0,0,0,0,0,0,0.4255,0.4255,0,0.4309,0.431,0.4311,0.4333,0.4333,0.4333,0.4333,0.4387,0.4388,0.439,0,0,0,0,0,0,0,0,0,0,0,0,0,0.4166,0.4168,0.4254,0.4255,0.4256,0.4309,0.431,0.4311,0.4333,0.4333,0.4333,0.4332,0.4386,0.4388,0.439,0,0,0,0,0,0,0,0,0,0,0,0,0,0.4211,0.4168,0.4254,0.4273,0.4276,0.4309,0.431,0.4311,0.4333,0.4333,0.4333,0.4332,0.4386,0.4388,0.439,0.4408,0,0,0.4398,0.4399,0,0,0,0,0,0,0,0,0.4208,0.4214,0.427,0.4272,0.4275,0.4314,0.4299,0.4344,0.4333,0.4311,0.4333,0.4332,0.4363,0.4367,0.4378,0.4411,0.4413,0.4398,0.4399,0.44,0.4401,0,0,0,0,0,0,0,0.4205,0.4212,0.4276,0.4271,0.4274,0.4278,0.4284,0.4307,0.4337,0.4313,0.4315,0.4321,0.4364,0.4375,0.4379,0.4414,0.4398,0.44,0.4401,0.4402,0.4463,0.4463,0,0,0,0,0,0,0.4199,0.4209,0.4274,0.4278,0.4241,0.428,0.4287,0.4302,0.4337,0.4342,0.4321,0.4322,0.4371,0.4376,0.4381,0.4404,0.44,0.4402,0.4404,0.4463,0.4463,0.4463,0,0,0,0,0,0,0.4197,0.4205,0.4272,0.4244,0.4253,0.4282,0.4298,0.4303,0.4314,0.4343,0.4348,0.4327,0.4371,0.4378,0.4401,0.4406,0.4403,0.4405,0.4463,0.4463,0.4463,0.4449,0,0,0,0,0,0,0.4195,0.4204,0.4212,0.4244,0.4254,0.4292,0.4298,0.4304,0.4318,0.432,0.435,0.4355,0.4372,0.4397,0.4403,0.4409,0.4407,0.4462,0.4463,0.4463,0.4449,0.4449,0.4449,0,0,0,0,0,0.4192,0.4206,0.4213,0.422,0.4265,0.4293,0.4298,0.4318,0.4319,0.4326,0.4345,0.4354,0.4404,0.44,0.4407,0.4413,0.4462,0.4463,0.4463,0.445,0.4449,0.4449,0,0,0,0,0,0,0.4174,0.4211,0.4218,0.4244,0.4265,0.4296,0.4307,0.4317,0.4338,0.4338,0.436,0.4367,0.4388,0.4403,0.4397,0.4431,0.4434,0.4436,0.4421,0.4421,0.4421,0.4417,0.4409,0,0,0,0,0,0.4173,0.4193,0.4224,0.4243,0.4253,0.4278,0.4291,0.4303,0.4326,0.4335,0.4355,0.4376,0.4396,0.4409,0.443,0.4451,0.4458,0.4459,0.4458,0.4458,0.4459,0.4471,0.4471,0.4465,0.4465,0.4465,0,0,0.4171,0.4194,0.4205,0.424,0.4258,0.4277,0.4285,0.4306,0.432,0.4338,0.4361,0.4377,0.4401,0.4423,0.4434,0.4436,0.4462,0.4459,0.4458,0.446,0.4471,0.4472,0.4472,0.4465,0.4465,0.4465,0,0,0.4177,0.4197,0.4215,0.4232,0.4259,0.4275,0.4279,0.4309,0.432,0.4344,0.4357,0.4374,0.4409,0.4426,0.4439,0.4449,0.4459,0.4455,0.4454,0.4464,0.4465,0.4465,0.4468,0.4469,0.4456,0.4456,0.4456,0,0.4172,0.4202,0.4222,0.4242,0.4256,0.4273,0.4291,0.4306,0.4338,0.4347,0.4349,0.4392,0.441,0.4436,0.4438,0.4449,0.4453,0.4452,0.4463,0.4464,0.4465,0.4468,0.4469,0.4456,0.4456,0.4456,0.4456,0,0.4193,0.4214,0.4225,0.4255,0.4271,0.4289,0.4311,0.4324,0.4335,0.435,0.4373,0.4395,0.442,0.4426,0.4437,0.4453,0.4454,0.4459,0.4462,0.4464,0.4468,0.4469,0.4455,0.4455,0.4455,0.4455,0,0,0.4191,0.4232,0.4235,0.4249,0.4279,0.4295,0.4313,0.4337,0.4348,0.4368,0.4384,0.4412,0.4416,0.4431,0.4444,0.4453,0.4459,0.4457,0.4458,0.4456,0.4477,0.4473,0.4474,0.4465,0.4465,0.4466,0.4475,0,0.4201,0.4236,0.4254,0.428,0.4298,0.4314,0.4329,0.4349,0.4363,0.438,0.4396,0.4416,0.4421,0.4429,0.4439,0.4456,0.4463,0.4456,0.4479,0.4479,0.4472,0.4476,0.4472,0.4479,0.4476,0.4476,0.4477,0,0.4219,0.4239,0.4267,0.4294,0.4303,0.4317,0.4339,0.4356,0.4377,0.4387,0.4403,0.4415,0.4433,0.4434,0.446,0.4454,0.4464,0.4473,0.4474,0.4477,0.4478,0.4479,0.4482,0.4483,0.4479,0.4479,0.4479,0,0.4213,0.4248,0.4269,0.428,0.4313,0.4322,0.4335,0.4357,0.437,0.4389,0.4398,0.4419,0.443,0.4446,0.4463,0.4463,0.4486,0.4489,0.4494,0.4494,0.4499,0.4498,0.4504,0.4505,0.4505,0.4505,0.4505,0,0.4223,0.4239,0.4267,0.428,0.4299,0.4318,0.4335,0.435,0.4369,0.4384,0.4398,0.4412,0.4434,0.445,0.4463,0.4481,0.4487,0.4494,0.4498,0.4493,0.4492,0.45,0.45,0.4505,0.4505,0.4505,0.4505,0,0.4221,0.424,0.4264,0.4292,0.4299,0.4312,0.4335,0.4348,0.4362,0.4381,0.4387,0.4409,0.4429,0.4447,0.4473,0.4482,0.45,0.4505,0.4493,0.4495,0.4499,0.4498,0.451,0.4512,0.4512,0.4512,0.4512,0,0.4226,0.4239,0.4268,0.4279,0.4293,0.4311,0.4324,0.4343,0.4356,0.4381,0.439,0.4411,0.4428,0.4458,0.4477,0.4496,0.4501,0.4504,0.4504,0.4499,0.4501,0.45,0.4501,0.4503,0.4503,0.4503,0.4503,0,0.4232,0.4241,0.426,0.4281,0.4297,0.4314,0.4333,0.4341,0.4363,0.4377,0.4397,0.4411,0.4437,0.4457,0.4478,0.4491,0.45,0.4503,0.4505,0.4501,0.4493,0.4497,0.4492,0.4503,0.4503,0.4503,0.4503,0.4503,0.4233,0.4245,0.4267,0.4287,0.4303,0.4319,0.4332,0.4348,0.4366,0.4389,0.4399,0.4419,0.4439,0.4469,0.4481,0.4497,0.4499,0.4502,0.4503,0.4503,0.4502,0.4491,0.4501,0.4501,0.4501,0.4501,0.4501,0,0.424,0.4255,0.4273,0.4298,0.4313,0.4321,0.4341,0.4353,0.4371,0.4389,0.4406,0.4428,0.4447,0.4467,0.4487,0.4495,0.45,0.45,0.4499,0.4502,0.4499,0.4495,0.4495,0.4495,0.4495,0.4495,0.4495,0.4495,0.4246,0.4266,0.4277,0.4304,0.4318,0.4339,0.4349,0.4364,0.4379,0.4403,0.4419,0.4432,0.445,0.4471,0.4488,0.4493,0.45,0.4498,0.4504,0.4502,0.4502,0.4502,0.4499,0.45,0.45,0.4506,0.4506,0.4506]},{"header":{"parameterUnit":"m.s-1","parameterCategory":1,"la1":30.2991,"la2":30.254,"lo1":-89.0895,"lo2":-89.0444,"dy":0.0017,"dx":0.0017,"nx":28,"ny":28,"refTime":"2024-05-06T03:00:00:Z","depth":0,"parameterNumber":3,"parameterNumberName":"V-component_of_WINDS"},"data":[0,0,0,0,0,0,0,0,0,0,0,0,0,0,0,0,0,0,0,0,0,0,0,0,0,0,0,0,0,0,0,0,0,0,0,0,0,0,0,0,0,0,0,0,0,0,0,0,0,0,0,0,0,0,0,0,0,0,5.2204,5.2205,0,5.2258,5.2259,5.2259,5.2191,5.2188,5.2186,5.2183,5.2233,5.2237,5.224,0,0,0,0,0,0,0,0,0,0,0,0,0,5.2037,5.204,5.2204,5.2205,5.2206,5.2258,5.2259,5.2259,5.2191,5.2188,5.2185,5.2182,5.2232,5.2236,5.2241,0,0,0,0,0,0,0,0,0,0,0,0,0,5.2102,5.2041,5.2204,5.2178,5.2176,5.2258,5.2259,5.226,5.2192,5.2188,5.2184,5.2181,5.223,5.2236,5.2241,5.2349,0,0,5.2258,5.226,0,0,0,0,0,0,0,0,5.2098,5.2108,5.2181,5.218,5.2178,5.2214,5.2218,5.2289,5.2193,5.2186,5.2183,5.2179,5.2229,5.2235,5.2253,5.2352,5.2354,5.2258,5.2262,5.2264,5.2265,0,0,0,0,0,0,0,5.2094,5.2105,5.2225,5.2182,5.2181,5.2162,5.2167,5.2231,5.2228,5.2186,5.2181,5.2189,5.2228,5.2248,5.2253,5.2354,5.2258,5.2263,5.2266,5.2268,5.2543,5.2547,0,0,0,0,0,0,5.2093,5.2102,5.2224,5.2227,5.2128,5.2168,5.2173,5.2206,5.2227,5.2226,5.2192,5.2185,5.224,5.2247,5.2255,5.2382,5.2264,5.2269,5.2272,5.2539,5.2544,5.2548,0,0,0,0,0,0,5.209,5.2105,5.2222,5.2163,5.2177,5.2175,5.2212,5.2209,5.2229,5.2231,5.223,5.2213,5.2237,5.2247,5.2326,5.2383,5.2271,5.2276,5.2534,5.254,5.2546,5.2638,0,0,0,0,0,0,5.2085,5.2104,5.2147,5.2165,5.218,5.2294,5.2215,5.2213,5.2239,5.2231,5.2251,5.225,5.2235,5.2319,5.2332,5.2388,5.2281,5.2529,5.2537,5.2544,5.2629,5.2646,5.266,0,0,0,0,0,5.208,5.2169,5.2149,5.2164,5.2234,5.2298,5.2306,5.2288,5.2244,5.2286,5.2287,5.225,5.2375,5.2327,5.2341,5.24,5.2525,5.2535,5.2543,5.2623,5.2643,5.266,0,0,0,0,0,0,5.2156,5.2171,5.2149,5.2248,5.2272,5.2286,5.2338,5.231,5.2346,5.2337,5.2312,5.2317,5.2401,5.2409,5.2356,5.2505,5.2442,5.2455,5.2498,5.2517,5.2532,5.2528,5.2285,0,0,0,0,0,5.2185,5.2238,5.2247,5.2333,5.2347,5.2341,5.2368,5.2352,5.2375,5.2385,5.2392,5.2415,5.2458,5.2488,5.2529,5.263,5.2632,5.2678,5.2693,5.2705,5.2716,5.2769,5.2789,5.2578,5.2578,5.2577,0,0,5.2244,5.2259,5.2293,5.2349,5.2366,5.2419,5.235,5.2409,5.2447,5.2393,5.2469,5.2475,5.2498,5.2589,5.2629,5.2597,5.2775,5.2717,5.2727,5.2731,5.278,5.28,5.2818,5.2584,5.2583,5.2582,0,0,5.2379,5.2396,5.2469,5.2488,5.2515,5.251,5.2528,5.2546,5.2548,5.2624,5.2584,5.2629,5.2705,5.2724,5.2743,5.2884,5.285,5.2898,5.2977,5.3029,5.3046,5.306,5.311,5.3128,5.2908,5.2909,5.2909,0,5.2448,5.2529,5.251,5.2572,5.2597,5.2552,5.2625,5.2643,5.2681,5.2699,5.2663,5.2758,5.2771,5.2864,5.2899,5.2916,5.2934,5.2895,5.3045,5.306,5.3073,5.3119,5.3138,5.2914,5.2913,5.2913,5.2912,0,5.2612,5.2669,5.2724,5.2764,5.2795,5.2862,5.2851,5.2885,5.2866,5.2864,5.2941,5.2954,5.2997,5.3018,5.3,5.3109,5.3088,5.305,5.2985,5.3099,5.3142,5.316,5.2922,5.292,5.2918,5.2917,0,0,5.2797,5.2826,5.2847,5.2864,5.289,5.2932,5.2996,5.3039,5.3067,5.3095,5.3147,5.3213,5.3177,5.3199,5.3182,5.3228,5.3337,5.3183,5.3183,5.3211,5.3457,5.3485,5.3506,5.3315,5.3319,5.3321,5.3454,0,5.2931,5.3045,5.3029,5.3137,5.3188,5.3145,5.3201,5.3222,5.3222,5.3263,5.3262,5.3309,5.3259,5.3271,5.3315,5.3315,5.3386,5.3305,5.3362,5.3364,5.3357,5.3529,5.356,5.3684,5.3471,5.3474,5.3476,0,5.3104,5.3139,5.3253,5.3271,5.3291,5.3342,5.3379,5.342,5.3442,5.3438,5.3463,5.3438,5.35,5.3435,5.3519,5.3465,5.3487,5.349,5.3494,5.3498,5.3427,5.3537,5.3724,5.3742,5.3503,5.3501,5.3499,0,5.3226,5.3302,5.338,5.3396,5.3418,5.3455,5.3465,5.3484,5.3511,5.3543,5.3559,5.3597,5.3618,5.3648,5.3633,5.3587,5.3719,5.3653,5.3716,5.3717,5.3746,5.3744,5.3938,5.3761,5.3761,5.3761,5.376,0,5.3377,5.3448,5.3435,5.3483,5.356,5.354,5.3617,5.3622,5.3639,5.3685,5.365,5.3694,5.3672,5.3713,5.3702,5.3772,5.3782,5.378,5.3776,5.3783,5.3783,5.3796,5.3787,5.3766,5.3764,5.3763,5.3763,0,5.3527,5.3521,5.3603,5.3618,5.3623,5.368,5.3691,5.3735,5.3732,5.3791,5.3803,5.3799,5.3846,5.3834,5.3885,5.3877,5.3966,5.3951,5.3959,5.3955,5.4019,5.4013,5.4228,5.4254,5.4061,5.4063,5.4064,0,5.3624,5.3678,5.3699,5.3728,5.3742,5.379,5.3817,5.3799,5.3828,5.3857,5.3897,5.3941,5.3976,5.4053,5.4052,5.4091,5.4076,5.4149,5.4082,5.4087,5.4076,5.4073,5.4078,5.4162,5.4164,5.4166,5.4168,0,5.3796,5.379,5.3832,5.3873,5.3906,5.3937,5.3963,5.3989,5.3973,5.4007,5.4056,5.4083,5.4135,5.4179,5.4214,5.4223,5.4192,5.4189,5.4205,5.4213,5.4215,5.4214,5.3995,5.4184,5.4182,5.4181,5.418,5.418,5.3922,5.3967,5.3989,5.4036,5.4055,5.4081,5.4122,5.4125,5.4166,5.4208,5.4194,5.425,5.4268,5.4313,5.4326,5.4368,5.434,5.4364,5.437,5.4376,5.4384,5.4209,5.4374,5.4374,5.4373,5.4373,5.4372,0,5.4091,5.4103,5.4147,5.4186,5.4223,5.4193,5.422,5.4252,5.4302,5.4323,5.4358,5.4413,5.4455,5.4459,5.4498,5.453,5.4517,5.4541,5.4538,5.4541,5.4407,5.4388,5.4551,5.4551,5.4551,5.4551,5.4551,5.4551,5.4184,5.4259,5.4256,5.4339,5.4349,5.4405,5.4423,5.4446,5.4463,5.4527,5.4562,5.4564,5.4578,5.4618,5.4654,5.4654,5.467,5.4699,5.4693,5.4568,5.455,5.4533,5.4516,5.4703,5.4703,5.4823,5.4825,5.4825]}]]